User: anonymous   Login
Location: Unspecified
(0.0000°N, 0.0000°E)
Time: 10:06:47
(UTC+00:00)
Language:

STARLINK-33698 - Orbit

View from above orbital plane
View from above orbital plane
View from above satellite
View from above satellite

Ground track
Ground track

The orbit is defined by the following mean orbital elements,

1 63420U          26145.39063205 +.00000000 +00000-0 +91442-3 0 00007
2 63420  43.0000  33.5615 0001770 269.5116  90.5533 15.27589294    09
Epoch (UTC): 25 May 2026 09:22:30
Eccentricity: 0.0001770
inclination: 43.0000°
perigee height: 482 km
apogee height: 484 km
right ascension of ascending node: 33.5615°
argument of perigee: 269.5116°
revolutions per day: 15.27589294
mean anomaly at epoch: 90.5533°

The dashed part of the orbit path shows where the satellite is in the earth's shadow,  

DLR